Weather History for KONA - February, 2014

Change the Weather History Date:

Wednesday, February 12, 2014

  Actual Average Record
Temperature  
Mean Temperature 17 °F -  
Max Temperature 26 °F 30 °F 50 °F (2005)
Min Temperature 8 °F 16 °F -2 °F (1997)
Degree Days  
Heating Degree Days 48    
Moisture  
Dew Point 9 °F    
Average Humidity 72    
Maximum Humidity 92    
Minimum Humidity 59    
Precipitation  
Precipitation 0.00 in - - ()
Sea Level Pressure  
Sea Level Pressure 30.07 in    
Wind  
Wind Speed 3 mph (South)    
Max Wind Speed 8 mph    
Max Gust Speed -    
Visibility 9 miles    
Events Snow    
Averages and records for this station are not official NWS values.
T = Trace of Precipitation, MM = Missing Value Source: NWS Daily Summary

Daily Weather History Graph

Daily Weather History Graph

Search for Another Location

Airport or City:

Trip Planner

Search our weather history database for the weather conditions in past years. The results will help you decide how hot, cold, wet, or windy it might be!

Date:

Astronomy

Feb. 12, 2014 Rise Set
Actual Time 7:10 AM CST 5:32 PM CST
Civil Twilight 6:40 AM CST 6:02 PM CST
Nautical Twilight 6:06 AM CST 6:36 PM CST
Astronomical Twilight 5:33 AM CST 7:09 PM CST
Moon 3:45 PM CST (2/12) 5:29 AM CST (2/12)
Length of Visible Light 11h 21m
Length of Day
10h 21m
Waxing Gibbous, 95% of the Moon is Illuminated
Feb 12
Waxing Gibbous
Feb 14
Full
Feb 22
Last Quarter
Mar 1
New
Mar 8
First Quarter

Hourly Weather History & Observations

Time (CST) Temp. Windchill Dew Point Humidity Pressure Visibility Wind Dir Wind Speed Gust Speed Precip Events Conditions
12:18 AM 12.2 °F 0.7 °F 1.4 °F 62% 30.17 in 10.0 mi SSE 8.1 mph - N/A   Overcast
12:38 AM 12.2 °F 2.9 °F 1.4 °F 62% 30.17 in 10.0 mi South 5.8 mph - N/A   Overcast
12:59 AM 12.2 °F 2.9 °F 1.4 °F 62% 30.17 in 10.0 mi South 5.8 mph - N/A   Overcast
1:18 AM 12.2 °F 1.7 °F 1.4 °F 62% 30.16 in 10.0 mi SSE 6.9 mph - N/A   Overcast
1:38 AM 12.2 °F 4.3 °F 1.4 °F 62% 30.16 in 10.0 mi South 4.6 mph - N/A   Overcast
1:59 AM 14.0 °F 6.5 °F 3.2 °F 62% 30.16 in 10.0 mi SSE 4.6 mph - N/A   Overcast
2:19 AM 14.0 °F 8.2 °F 3.2 °F 62% 30.15 in 10.0 mi SSE 3.5 mph - N/A   Overcast
2:38 AM 14.0 °F 8.2 °F 3.2 °F 62% 30.15 in 10.0 mi SE 3.5 mph - N/A   Overcast
2:58 AM 14.0 °F 8.2 °F 5.0 °F 67% 30.14 in 10.0 mi SE 3.5 mph - N/A   Overcast
3:19 AM 14.0 °F - 3.2 °F 62% 30.14 in 10.0 mi Calm Calm - N/A   Overcast
3:38 AM 14.0 °F - 5.0 °F 67% 30.14 in 10.0 mi Calm Calm - N/A   Overcast
3:58 AM 14.0 °F 8.2 °F 5.0 °F 67% 30.13 in 10.0 mi South 3.5 mph - N/A   Overcast
4:19 AM 14.0 °F 5.1 °F 5.0 °F 67% 30.13 in 10.0 mi South 5.8 mph - N/A   Overcast
4:38 AM 14.0 °F - 3.2 °F 62% 30.13 in 10.0 mi Calm Calm - N/A   Overcast
4:58 AM 15.8 °F - 5.0 °F 62% 30.13 in 10.0 mi Calm Calm - N/A   Overcast
5:19 AM 15.8 °F - 5.0 °F 62% 30.13 in 10.0 mi Calm Calm - N/A   Overcast
5:38 AM 15.8 °F - 5.0 °F 62% 30.13 in 10.0 mi Calm Calm - N/A   Overcast
5:58 AM 14.0 °F - 5.0 °F 67% 30.12 in 10.0 mi Calm Calm - N/A   Overcast
6:19 AM 14.0 °F - 6.8 °F 73% 30.13 in 10.0 mi Calm Calm - N/A   Overcast
6:38 AM 14.0 °F - 6.8 °F 73% 30.13 in 10.0 mi Calm Calm - N/A   Overcast
6:58 AM 14.0 °F - 6.8 °F 73% 30.13 in 10.0 mi Calm Calm - N/A   Overcast
7:19 AM 14.0 °F - 8.6 °F 79% 30.14 in 4.0 mi Calm Calm - N/A Snow Light Snow
7:38 AM 14.0 °F 8.2 °F 10.4 °F 86% 30.14 in 2.0 mi SE 3.5 mph - N/A Snow Light Snow
7:58 AM 14.0 °F - 10.4 °F 86% 30.14 in 1.8 mi Calm Calm - N/A Snow Light Snow
8:19 AM 14.0 °F - 10.4 °F 86% 30.13 in 1.8 mi Calm Calm - N/A Snow Light Snow
8:38 AM 14.0 °F 8.2 °F 10.4 °F 86% 30.13 in 3.0 mi SSE 3.5 mph - N/A Snow Light Snow
8:58 AM 15.8 °F - 10.4 °F 79% 30.13 in 10.0 mi Calm Calm - N/A   Overcast
9:19 AM 17.6 °F 10.7 °F 10.4 °F 73% 30.13 in 3.0 mi SSW 4.6 mph - N/A Snow Light Snow
9:38 AM 17.6 °F 12.3 °F 10.4 °F 73% 30.13 in 7.0 mi SSW 3.5 mph - N/A   Overcast
9:58 AM 17.6 °F - 10.4 °F 73% 30.13 in 7.0 mi Calm Calm - N/A   Mostly Cloudy
10:19 AM 17.6 °F - 10.4 °F 73% 30.14 in 10.0 mi Calm Calm - N/A   Mostly Cloudy
10:38 AM 19.4 °F - 12.2 °F 74% 30.14 in 10.0 mi Calm Calm - N/A   Overcast
10:58 AM 19.4 °F 14.3 °F 12.2 °F 74% 30.14 in 10.0 mi WSW 3.5 mph - N/A   Overcast
11:19 AM 19.4 °F 14.3 °F 12.2 °F 74% 30.14 in 10.0 mi WSW 3.5 mph - N/A   Overcast
11:39 AM 19.4 °F - 12.2 °F 74% 30.13 in 10.0 mi Calm Calm - N/A   Overcast
11:58 AM 19.4 °F - 10.4 °F 68% 30.12 in 10.0 mi Calm Calm - N/A   Overcast
12:19 PM 19.4 °F - 12.2 °F 74% 30.11 in 10.0 mi Calm Calm - N/A   Overcast
12:39 PM 21.2 °F - 12.2 °F 68% 30.09 in 10.0 mi Calm Calm - N/A   Overcast
12:58 PM 21.2 °F - 12.2 °F 68% 30.07 in 10.0 mi Calm Calm - N/A   Mostly Cloudy
1:19 PM 23.0 °F - 12.2 °F 63% 30.07 in 10.0 mi Calm Calm - N/A   Scattered Clouds
1:39 PM 23.0 °F - 12.2 °F 63% 30.07 in 10.0 mi Calm Calm - N/A   Clear
1:58 PM 23.0 °F - 12.2 °F 63% 30.06 in 10.0 mi Calm Calm - N/A   Clear
2:19 PM 24.8 °F - 12.2 °F 59% 30.06 in 10.0 mi Calm Calm - N/A   Clear
2:39 PM 23.0 °F - 12.2 °F 63% 30.05 in 10.0 mi Calm Calm - N/A   Clear
2:58 PM 23.0 °F - 12.2 °F 63% 30.04 in 10.0 mi Calm Calm - N/A   Clear
3:19 PM 26.6 °F - 14.0 °F 59% 30.06 in 10.0 mi Calm Calm - N/A   Clear
3:39 PM 24.8 °F 20.5 °F 12.2 °F 59% 30.06 in 10.0 mi NNW 3.5 mph - N/A   Clear
3:58 PM 24.8 °F - 14.0 °F 64% 30.05 in 10.0 mi Calm Calm - N/A   Clear
4:19 PM 24.8 °F - 14.0 °F 64% 30.03 in 10.0 mi Calm Calm - N/A   Clear
4:39 PM 23.0 °F 17.0 °F 12.2 °F 63% 30.02 in 10.0 mi West 4.6 mph - N/A   Clear
4:58 PM 23.0 °F 18.4 °F 12.2 °F 63% 30.02 in 10.0 mi West 3.5 mph - N/A   Clear
5:19 PM 23.0 °F - 12.2 °F 63% 30.01 in 10.0 mi Calm Calm - N/A   Clear
5:39 PM 21.2 °F - 14.0 °F 74% 30.01 in 10.0 mi Calm Calm - N/A   Clear
5:58 PM 17.6 °F - 10.4 °F 73% 30.01 in 10.0 mi Calm Calm - N/A   Clear
6:19 PM 17.6 °F - 12.2 °F 79% 30.01 in 10.0 mi Calm Calm - N/A   Clear
6:38 PM 17.6 °F - 12.2 °F 79% 30.01 in 10.0 mi Calm Calm - N/A   Clear
6:58 PM 14.0 °F - 10.4 °F 86% 29.99 in 10.0 mi Calm Calm - N/A   Clear
7:18 PM 12.2 °F - 8.6 °F 85% 29.99 in 10.0 mi Calm Calm - N/A   Clear
7:38 PM 12.2 °F - 8.6 °F 85% 29.99 in 10.0 mi Calm Calm - N/A   Clear
7:59 PM 10.4 °F - 8.6 °F 92% 30.00 in 10.0 mi Calm Calm - N/A   Clear
8:18 PM 10.4 °F - 8.6 °F 92% 29.99 in 10.0 mi Calm Calm - N/A   Clear
8:38 PM 8.6 °F - 5.0 °F 85% 29.99 in 7.0 mi Calm Calm - N/A   Clear
8:59 PM 10.4 °F - 6.8 °F 85% 30.00 in 10.0 mi Calm Calm - N/A   Clear
9:18 PM 10.4 °F - 6.8 °F 85% 29.99 in 10.0 mi Calm Calm - N/A   Clear
9:38 PM 10.4 °F - 6.8 °F 85% 29.98 in 10.0 mi Calm Calm - N/A   Clear
9:59 PM 10.4 °F - 6.8 °F 85% 29.97 in 10.0 mi Calm Calm - N/A   Clear
10:18 PM 14.0 °F 3.9 °F 10.4 °F 86% 29.94 in 10.0 mi SE 6.9 mph - N/A   Clear
10:38 PM 15.8 °F - 10.4 °F 79% 29.94 in 10.0 mi Calm Calm - N/A   Clear
10:59 PM 14.0 °F - 10.4 °F 86% 29.94 in 10.0 mi Calm Calm - N/A   Clear
11:18 PM 14.0 °F 6.5 °F 10.4 °F 86% 29.92 in 10.0 mi SSE 4.6 mph - N/A   Clear
11:39 PM 14.0 °F 5.1 °F 10.4 °F 86% 29.91 in 10.0 mi SSE 5.8 mph - N/A   Clear
11:59 PM 14.0 °F 5.1 °F 10.4 °F 86% 29.90 in 10.0 mi SSE 5.8 mph - N/A   Clear